Perry, IA

1:02 PM CDT on May 22, 2017 (GMT -0500)
Perry Municipal

Weather History for KPRO - July, 2013

Change the Weather History Date:

Saturday, July 20, 2013

  Actual Average Record
Temperature  
Mean Temperature 72 °F -  
Max Temperature 87 °F 86 °F 99 °F (1974)
Min Temperature 58 °F 65 °F 51 °F (1958)
Cooling Degree Days 8    
Growing Degree Days 22 (Base 50)    
Moisture  
Dew Point 57 °F    
Average Humidity 59    
Maximum Humidity 87    
Minimum Humidity 24    
Precipitation  
Precipitation 0.00 in - - ()
Sea Level Pressure  
Sea Level Pressure 29.94 in    
Wind  
Wind Speed 3 mph (North)    
Max Wind Speed 7 mph    
Max Gust Speed -    
Visibility 10 miles    
Events      
Averages and records for this station are not official NWS values.
T = Trace of Precipitation, MM = Missing Value Source: NWS Daily Summary

Daily Weather History Graph

Daily Weather History Graph

Search for Another Location

Airport or City:

Trip Planner

Search our weather history database for the weather conditions in past years. The results will help you decide how hot, cold, wet, or windy it might be!

Date:

Astronomy

Jul. 20, 2013 Rise Set
Actual Time 5:59 AM CDT 8:46 PM CDT
Civil Twilight 5:26 AM CDT 9:18 PM CDT
Nautical Twilight 4:45 AM CDT 9:59 PM CDT
Astronomical Twilight 3:58 AM CDT 10:46 PM CDT
Moon 6:50 PM CDT (7/20) 3:40 AM CDT (7/20)
Length of Visible Light 15h 52m
Length of Day
14h 46m
Waxing Gibbous, 94% of the Moon is Illuminated
Jul 20
Waxing Gibbous
Jul 22
Full
Jul 29
Last Quarter
Aug 6
New
Aug 14
First Quarter

Hourly Weather History & Observations

Time (CDT) Temp. Heat Index Dew Point Humidity Pressure Visibility Wind Dir Wind Speed Gust Speed Precip Events Conditions
12:15 AM 67.1 °F - 59.9 °F 78% 29.94 in 10.0 mi North 3.5 mph - N/A   Clear
12:35 AM 66.7 °F - 60.1 °F 79% 29.94 in 10.0 mi NNW 4.6 mph - N/A   Clear
12:55 AM 65.7 °F - 59.4 °F 80% 29.96 in 10.0 mi NNW 4.6 mph - N/A   Clear
1:15 AM 64.8 °F - 59.0 °F 82% 29.96 in 10.0 mi NNW 3.5 mph - N/A   Clear
1:35 AM 64.8 °F - 59.0 °F 82% 29.96 in 10.0 mi NNW 4.6 mph - N/A   Clear
1:55 AM 63.9 °F - 58.1 °F 81% 29.96 in 10.0 mi NNW 3.5 mph - N/A   Clear
2:15 AM 63.7 °F - 58.1 °F 82% 29.95 in 10.0 mi NNW 3.5 mph - N/A   Clear
2:35 AM 62.1 °F - 57.0 °F 84% 29.96 in 10.0 mi WNW 3.5 mph - N/A   Clear
2:55 AM 61.9 °F - 57.2 °F 85% 29.96 in 10.0 mi West 3.5 mph - N/A   Clear
3:35 AM 61.2 °F - 56.5 °F 85% 29.94 in 10.0 mi NW 3.5 mph - N/A   Clear
3:55 AM 60.8 °F - 56.7 °F 86% 29.94 in 10.0 mi NNW 4.6 mph - N/A   Clear
4:15 AM 61.7 °F - 57.4 °F 86% 29.93 in 10.0 mi Calm Calm - N/A   Clear
4:35 AM 59.9 °F - 55.9 °F 87% 29.93 in 10.0 mi Calm Calm - N/A   Clear
4:55 AM 59.4 °F - 55.4 °F 87% 29.93 in 10.0 mi West 3.5 mph - N/A   Clear
5:15 AM 59.5 °F - 55.4 °F 86% 29.93 in 10.0 mi West 4.6 mph - N/A   Clear
5:35 AM 59.2 °F - 55.2 °F 87% 29.92 in 10.0 mi SW 4.6 mph - N/A   Clear
5:55 AM 58.5 °F - 54.5 °F 87% 29.92 in 10.0 mi Calm Calm - N/A   Clear
6:15 AM 58.1 °F - 53.8 °F 86% 29.93 in 10.0 mi Calm Calm - N/A   Clear
6:35 AM 58.8 °F - 54.9 °F 87% 29.94 in 10.0 mi North 4.6 mph - N/A   Clear
6:55 AM 60.6 °F - 56.5 °F 86% 29.94 in 10.0 mi Calm Calm - N/A   Clear
7:15 AM 63.5 °F - 58.8 °F 85% 29.93 in 10.0 mi Calm Calm - N/A   Clear
7:35 AM 65.1 °F - 58.6 °F 79% 29.94 in 10.0 mi Calm Calm - N/A   Clear
7:55 AM 65.7 °F - 60.1 °F 82% 29.94 in 10.0 mi Calm Calm - N/A   Clear
8:15 AM 68.4 °F - 61.2 °F 78% 29.96 in 10.0 mi Calm Calm - N/A   Clear
8:35 AM 69.8 °F - 61.0 °F 73% 29.96 in 10.0 mi Calm Calm - N/A   Clear
8:55 AM 73.4 °F - 61.7 °F 67% 29.97 in 10.0 mi North 4.6 mph - N/A   Clear
9:15 AM 73.9 °F - 61.0 °F 64% 30.00 in 10.0 mi NW 5.8 mph - N/A   Clear
9:35 AM 75.2 °F - 60.8 °F 61% 29.99 in 10.0 mi NNW 3.5 mph - N/A   Clear
9:55 AM 75.7 °F - 60.4 °F 59% 30.00 in 10.0 mi North 3.5 mph - N/A   Clear
10:15 AM 77.0 °F - 60.4 °F 56% 29.99 in 10.0 mi Calm Calm - N/A   Clear
10:55 AM 79.5 °F - 57.4 °F 47% 30.00 in 10.0 mi Calm Calm - N/A   Clear
11:35 AM 81.3 °F 81.3 °F 57.2 °F 44% 30.00 in 10.0 mi ENE 3.5 mph - N/A   Clear
11:55 AM 82.2 °F 81.6 °F 55.8 °F 40% 29.99 in 10.0 mi East 5.8 mph - N/A   Clear
12:15 PM 82.6 °F 81.7 °F 54.5 °F 38% 29.98 in 10.0 mi Calm Calm - N/A   Clear
12:35 PM 83.7 °F 82.8 °F 56.3 °F 39% 29.98 in 10.0 mi South 3.5 mph - N/A   Clear
12:55 PM 84.4 °F 83.1 °F 54.9 °F 36% 29.97 in 10.0 mi SSE 5.8 mph - N/A   Clear
1:15 PM 84.2 °F 83.0 °F 55.2 °F 37% 29.95 in 10.0 mi Calm Calm - N/A   Clear
1:35 PM 85.3 °F 83.9 °F 55.8 °F 36% 29.94 in 10.0 mi SSE 3.5 mph - N/A   Clear
1:55 PM 86.2 °F 84.4 °F 53.6 °F 33% 29.94 in 10.0 mi ESE 5.8 mph - N/A   Clear
2:15 PM 86.2 °F - 50.5 °F 29% 29.94 in 10.0 mi SSE 4.6 mph - N/A   Clear
2:35 PM 85.6 °F - 52.5 °F 32% 29.94 in 10.0 mi SE 3.5 mph - N/A   Clear
2:55 PM 86.4 °F - 49.6 °F 28% 29.94 in 10.0 mi East 3.5 mph - N/A   Clear
3:15 PM 87.3 °F - 50.0 °F 28% 29.93 in 10.0 mi Calm Calm - N/A   Clear
3:35 PM 86.4 °F - 48.6 °F 27% 29.94 in 10.0 mi South 3.5 mph - N/A   Clear
3:55 PM 86.4 °F - 47.1 °F 26% 29.94 in 10.0 mi Calm Calm - N/A   Clear
4:15 PM 87.1 °F - 46.4 °F 24% 29.93 in 10.0 mi East 3.5 mph - N/A   Clear
4:35 PM 85.8 °F - 48.2 °F 27% 29.92 in 10.0 mi Calm Calm - N/A   Clear
4:55 PM 85.3 °F - 51.4 °F 31% 29.92 in 10.0 mi Calm Calm - N/A   Clear
5:15 PM 86.7 °F - 49.8 °F 28% 29.90 in 10.0 mi Calm Calm - N/A   Clear
5:35 PM 86.9 °F - 50.9 °F 29% 29.90 in 10.0 mi Calm Calm - N/A   Clear
5:55 PM 86.2 °F - 50.4 °F 29% 29.88 in 10.0 mi Calm Calm - N/A   Clear
6:15 PM 85.5 °F 83.8 °F 54.0 °F 34% 29.88 in 10.0 mi North 3.5 mph - N/A   Clear
6:35 PM 83.7 °F 83.6 °F 59.4 °F 44% 29.89 in 10.0 mi NNW 3.5 mph - N/A   Clear
6:55 PM 83.5 °F 82.9 °F 57.6 °F 41% 29.89 in 10.0 mi Calm Calm - N/A   Clear
7:15 PM 84.2 °F 83.3 °F 56.5 °F 39% 29.89 in 10.0 mi NNE 4.6 mph - N/A   Clear
7:35 PM 83.5 °F 82.5 °F 55.6 °F 38% 29.89 in 10.0 mi NE 3.5 mph - N/A   Clear
7:55 PM 82.2 °F 82.1 °F 58.3 °F 44% 29.90 in 10.0 mi Calm Calm - N/A   Clear
8:15 PM 80.6 °F 81.5 °F 61.2 °F 51% 29.90 in 10.0 mi NE 3.5 mph - N/A   Clear
8:35 PM 77.2 °F - 61.0 °F 57% 29.89 in 10.0 mi Calm Calm - N/A   Clear
8:55 PM 75.7 °F - 61.2 °F 60% 29.90 in 10.0 mi Calm Calm - N/A   Clear
9:15 PM 73.8 °F - 61.5 °F 65% 29.89 in 10.0 mi Calm Calm - N/A   Clear
9:35 PM 73.8 °F - 60.8 °F 64% 29.90 in 10.0 mi ENE 4.6 mph - N/A   Clear
9:55 PM 72.5 °F - 61.5 °F 68% 29.91 in 10.0 mi ENE 3.5 mph - N/A   Clear
10:15 PM 72.7 °F - 61.0 °F 67% 29.93 in 10.0 mi Calm Calm - N/A   Clear
10:55 PM 72.9 °F - 59.9 °F 64% 29.93 in 10.0 mi NE 4.6 mph - N/A   Clear
11:15 PM 69.1 °F - 60.1 °F 73% 29.94 in 10.0 mi South 6.9 mph - N/A   Clear
11:35 PM 68.2 °F - 59.9 °F 75% 29.93 in 10.0 mi South 6.9 mph - N/A   Clear
11:55 PM 67.6 °F - 59.4 °F 75% 29.93 in 10.0 mi South 4.6 mph - N/A   Clear